Regional Weather Roundup
Issued by NWS

Home | Current Version | Previous Version | Text Only | Print | Product List | Glossary Off
Versions: 1 2 3 4 5 6 7 8 9 10 11 12 13 14 15 16 17 18 19 20 21 22 23 24 25 26 27 28 29 30 31 32 33 34 35 36 37 38 39 40 41 42 43 44 45 46 47 48 49 50

000
ASUS43 KFSD 280110
RWRSD

WEATHER ROUNDUP FOR SOUTH DAKOTA
NATIONAL WEATHER SERVICE SIOUX FALLS SD
800 PM CDT WED AUG 27 2014

NOTE: "FAIR" INDICATES FEW OR NO CLOUDS BELOW 12,000 FEET WITH NO
SIGNIFICANT WEATHER AND/OR OBSTRUCTIONS TO VISIBILITY.


SDZ001>005-009-010-012>017-280200-
NORTHWEST AND NORTH CENTRAL SOUTH DAKOTA

CITY           SKY/WX    TMP DP  RH WIND       PRES   REMARKS
BUFFALO          N/A     68  61  78 SE8       29.99S
FAITH            N/A     67  64  90 E6        30.04S
MOBRIDGE       MOCLDY    70  64  81 E6        30.00F
$$

SDZ012>016-024>037-041>051-057-063-072>074-280200-
SOUTHWEST AND SOUTH CENTRAL SOUTH DAKOTA

CITY           SKY/WX    TMP DP  RH WIND       PRES   REMARKS
RAPID CTY ARPT CLOUDY    67  62  84 SE10      30.06
PIERRE         CLOUDY    72  66  81 E8        29.99F
CUSTER         LGT RAIN  60  57  89 NE5       30.16S
ELLSWORTH AFB  CLOUDY    69  62  80 SE10      30.06S
PHILIP         LGT RAIN  71  66  84 CALM      30.02R
PINE RIDGE     CLOUDY    65  63  93 NE7       30.04
WINNER         CLOUDY    71  66  84 SE12      30.03S
$$

SDZ004>011-016>023-039-040-280200-
NORTHEAST SOUTH DAKOTA

CITY           SKY/WX    TMP DP  RH WIND       PRES   REMARKS
ABERDEEN       MOCLDY    69  62  78 E6        30.05
WATERTOWN      MOCLDY    70  61  73 SE5       30.08S
SISSETON         N/A     68  61  78 SE5       30.07F
$$

SDZ017-020-022-023-036>040-048>070-280200-
SOUTHEAST SOUTH DAKOTA

CITY           SKY/WX    TMP DP  RH WIND       PRES   REMARKS
SIOUX FALLS    MOCLDY    70  66  87 E8        30.07F
HURON          MOCLDY    72  64  76 SE7       30.04F
CHAMBERLAIN    CLOUDY    69  65  87 SE8       30.04R
MITCHELL       CLOUDY    71  67  87 E7        30.04F
YANKTON        CLOUDY    70  66  88 E8        30.04F
$$

ABBREVIATIONS USED IN REMARKS
   TC - TEMPERATURE IN CELSIUS
  WCI - WIND CHILL INDEX
   HX - HEAT INDEX
  VSB - VISIBILITY




USA.gov is the U.S. government's official web portal to all federal, state and local government web resources and services.